Private Wetterstation Sandau
Wetterdaten: Mittwoch, 11.04.2012
Datum Zeit Temp. A. Feuchte A. Luftdruck Regen Wind Richtung Richtung Taupunkt Windchill
11.04.2012 00:01 10,6 C 76 % 995,9 hPa 0,0 l/m 5,0 km/h (1 Bft) O-SO 112 6,5 C 10,6 C
11.04.2012 00:06 10,7 C 76 % 995,8 hPa 0,0 l/m 5,8 km/h (2 Bft) O 90 6,6 C 10,7 C
11.04.2012 00:11 10,8 C 76 % 995,8 hPa 0,0 l/m 3,6 km/h (1 Bft) O-SO 112 6,7 C 10,8 C
11.04.2012 00:16 10,8 C 76 % 995,9 hPa 0,0 l/m 3,6 km/h (1 Bft) O 90 6,7 C 10,8 C
11.04.2012 00:21 10,8 C 76 % 995,9 hPa 0,0 l/m 4,7 km/h (1 Bft) O 90 6,7 C 10,8 C
11.04.2012 00:26 10,8 C 76 % 995,8 hPa 0,0 l/m 3,2 km/h (1 Bft) O 90 6,7 C 10,8 C
11.04.2012 00:31 10,8 C 75 % 995,9 hPa 0,0 l/m 0,0 km/h (0 Bft) O 90 6,5 C 10,8 C
11.04.2012 00:36 10,8 C 76 % 995,9 hPa 0,0 l/m 0,0 km/h (0 Bft) O 90 6,7 C 10,8 C
11.04.2012 00:41 10,8 C 76 % 995,9 hPa 0,0 l/m 0,0 km/h (0 Bft) SO 135 6,7 C 10,8 C
11.04.2012 00:46 10,8 C 76 % 996,1 hPa 0,0 l/m 0,0 km/h (0 Bft) O-SO 112 6,7 C 10,8 C
11.04.2012 00:51 10,8 C 76 % 995,8 hPa 0,0 l/m 0,0 km/h (0 Bft) O 90 6,7 C 10,8 C
11.04.2012 00:56 10,7 C 76 % 995,9 hPa 0,0 l/m 7,2 km/h (2 Bft) O 90 6,6 C 10,7 C
11.04.2012 01:01 10,7 C 76 % 996,0 hPa 0,0 l/m 1,8 km/h (1 Bft) O-SO 112 6,6 C 10,7 C
11.04.2012 01:06 10,6 C 76 % 996,1 hPa 0,0 l/m 3,2 km/h (1 Bft) O 90 6,5 C 10,6 C
11.04.2012 01:11 10,6 C 77 % 996,2 hPa 0,0 l/m 1,8 km/h (1 Bft) O-SO 112 6,7 C 10,6 C
11.04.2012 01:16 10,5 C 77 % 996,2 hPa 0,0 l/m 0,0 km/h (0 Bft) SO 135 6,6 C 10,5 C
11.04.2012 01:21 10,5 C 77 % 996,4 hPa 0,0 l/m 3,6 km/h (1 Bft) SO 135 6,6 C 10,5 C
11.04.2012 01:26 10,5 C 77 % 996,2 hPa 0,0 l/m 1,8 km/h (1 Bft) SW 225 6,6 C 10,5 C
11.04.2012 01:31 10,5 C 77 % 996,3 hPa 0,0 l/m 0,0 km/h (0 Bft) S-SW 202 6,6 C 10,5 C
11.04.2012 01:36 10,6 C 77 % 996,4 hPa 0,0 l/m 1,4 km/h (1 Bft) W-SW 247 6,7 C 10,6 C
11.04.2012 01:41 10,6 C 77 % 996,4 hPa 0,0 l/m 1,8 km/h (1 Bft) S-SW 202 6,7 C 10,6 C
11.04.2012 01:46 10,6 C 77 % 996,4 hPa 0,0 l/m 5,8 km/h (2 Bft) S-SW 202 6,7 C 10,6 C
11.04.2012 01:51 10,6 C 78 % 996,4 hPa 0,0 l/m 0,0 km/h (0 Bft) W-SW 247 6,9 C 10,6 C
11.04.2012 01:56 10,6 C 78 % 996,5 hPa 0,0 l/m 2,2 km/h (1 Bft) S 180 6,9 C 10,6 C
11.04.2012 02:01 10,7 C 78 % 996,4 hPa 0,0 l/m 4,0 km/h (1 Bft) SO 135 7,0 C 10,7 C
11.04.2012 02:06 10,7 C 78 % 996,6 hPa 0,0 l/m 7,2 km/h (2 Bft) S-SO 157 7,0 C 10,7 C
11.04.2012 02:11 10,7 C 79 % 996,6 hPa 0,0 l/m 0,0 km/h (0 Bft) S 180 7,2 C 10,7 C
11.04.2012 02:16 10,6 C 79 % 996,5 hPa 0,0 l/m 0,0 km/h (0 Bft) S-SO 157 7,1 C 10,6 C
11.04.2012 02:21 10,6 C 79 % 996,7 hPa 0,0 l/m 5,4 km/h (1 Bft) S-SW 202 7,1 C 10,6 C
11.04.2012 02:26 10,6 C 79 % 996,8 hPa 0,0 l/m 5,0 km/h (1 Bft) S-SW 202 7,1 C 10,6 C
11.04.2012 02:31 10,6 C 79 % 996,9 hPa 0,0 l/m 8,6 km/h (2 Bft) S-SO 157 7,1 C 10,6 C
11.04.2012 02:36 10,6 C 79 % 996,8 hPa 0,0 l/m 4,3 km/h (1 Bft) S-SO 157 7,1 C 10,6 C
11.04.2012 02:41 10,6 C 80 % 996,7 hPa 0,0 l/m 2,9 km/h (1 Bft) S 180 7,3 C 10,6 C
11.04.2012 02:46 10,6 C 80 % 996,7 hPa 0,5 l/m 0,0 km/h (0 Bft) S-SO 157 7,3 C 10,6 C
11.04.2012 02:51 10,6 C 80 % 996,6 hPa 0,0 l/m 2,5 km/h (1 Bft) S-SW 202 7,3 C 10,6 C
11.04.2012 02:56 10,6 C 81 % 996,5 hPa 0,0 l/m 2,9 km/h (1 Bft) S-SW 202 7,5 C 10,6 C
11.04.2012 03:01 10,6 C 81 % 996,6 hPa 0,0 l/m 7,6 km/h (2 Bft) SW 225 7,5 C 10,6 C
11.04.2012 03:06 10,6 C 81 % 996,3 hPa 0,0 l/m 0,0 km/h (0 Bft) S-SO 157 7,5 C 10,6 C
11.04.2012 03:11 10,6 C 81 % 996,3 hPa 0,0 l/m 0,0 km/h (0 Bft) S-SO 157 7,5 C 10,6 C
11.04.2012 03:16 10,6 C 81 % 996,2 hPa 0,0 l/m 0,0 km/h (0 Bft) S-SO 157 7,5 C 10,6 C
11.04.2012 03:21 10,5 C 82 % 996,0 hPa 0,0 l/m 2,2 km/h (1 Bft) SO 135 7,6 C 10,5 C
11.04.2012 03:26 10,4 C 82 % 995,9 hPa 0,0 l/m 2,9 km/h (1 Bft) S-SO 157 7,5 C 10,4 C
11.04.2012 03:31 10,4 C 82 % 996,0 hPa 0,0 l/m 3,2 km/h (1 Bft) SO 135 7,5 C 10,4 C
11.04.2012 03:36 10,4 C 82 % 995,7 hPa 0,0 l/m 2,9 km/h (1 Bft) S-SO 157 7,5 C 10,4 C
11.04.2012 03:41 10,4 C 82 % 995,7 hPa 0,0 l/m 1,8 km/h (1 Bft) S 180 7,5 C 10,4 C
11.04.2012 03:46 10,4 C 82 % 995,6 hPa 0,0 l/m 2,5 km/h (1 Bft) SO 135 7,5 C 10,4 C
11.04.2012 03:51 10,4 C 83 % 995,7 hPa 0,0 l/m 7,6 km/h (2 Bft) S-SO 157 7,6 C 10,4 C
11.04.2012 03:56 10,3 C 83 % 995,9 hPa 0,0 l/m 1,1 km/h (1 Bft) S-SO 157 7,5 C 10,3 C
11.04.2012 04:01 10,3 C 83 % 995,8 hPa 0,0 l/m 3,6 km/h (1 Bft) S-SO 157 7,5 C 10,3 C
11.04.2012 04:06 10,3 C 83 % 995,9 hPa 0,0 l/m 5,4 km/h (1 Bft) S-SO 157 7,5 C 10,3 C
11.04.2012 04:11 10,2 C 84 % 995,7 hPa 0,0 l/m 1,4 km/h (1 Bft) S-SW 202 7,6 C 10,2 C
11.04.2012 04:16 10,2 C 84 % 995,7 hPa 0,0 l/m 0,0 km/h (0 Bft) S 180 7,6 C 10,2 C
11.04.2012 04:21 10,2 C 84 % 995,6 hPa 0,0 l/m 1,1 km/h (1 Bft) S-SW 202 7,6 C 10,2 C
11.04.2012 04:26 10,2 C 84 % 995,7 hPa 0,0 l/m 4,7 km/h (1 Bft) S-SW 202 7,6 C 10,2 C
11.04.2012 04:31 10,2 C 84 % 995,6 hPa 0,0 l/m 0,0 km/h (0 Bft) SO 135 7,6 C 10,2 C
11.04.2012 04:36 10,1 C 84 % 995,6 hPa 0,0 l/m 4,3 km/h (1 Bft) S-SW 202 7,5 C 10,1 C
11.04.2012 04:41 10,1 C 84 % 995,6 hPa 0,0 l/m 2,2 km/h (1 Bft) SO 135 7,5 C 10,1 C
11.04.2012 04:46 10,1 C 84 % 995,7 hPa 0,0 l/m 6,1 km/h (2 Bft) S-SO 157 7,5 C 10,1 C
11.04.2012 04:51 10,1 C 84 % 995,4 hPa 0,0 l/m 5,0 km/h (1 Bft) SO 135 7,5 C 10,1 C
11.04.2012 04:56 10,1 C 84 % 995,4 hPa 0,0 l/m 2,2 km/h (1 Bft) S-SW 202 7,5 C 10,1 C
11.04.2012 05:01 9,9 C 84 % 995,4 hPa 0,0 l/m 2,5 km/h (1 Bft) SO 135 7,3 C 9,9 C
11.04.2012 05:06 9,9 C 84 % 995,1 hPa 0,0 l/m 0,0 km/h (0 Bft) SO 135 7,3 C 9,9 C
11.04.2012 05:11 9,9 C 84 % 994,8 hPa 0,0 l/m 0,0 km/h (0 Bft) S 180 7,3 C 9,9 C
11.04.2012 05:16 9,9 C 84 % 995,0 hPa 0,0 l/m 6,1 km/h (2 Bft) S-SO 157 7,3 C 9,3 C
11.04.2012 05:21 9,9 C 84 % 995,0 hPa 0,0 l/m 3,6 km/h (1 Bft) S-SO 157 7,3 C 9,9 C
11.04.2012 05:26 9,9 C 84 % 995,1 hPa 0,0 l/m 5,8 km/h (2 Bft) SO 135 7,3 C 9,4 C
11.04.2012 05:31 9,8 C 84 % 995,2 hPa 0,0 l/m 2,5 km/h (1 Bft) S 180 7,2 C 9,8 C
11.04.2012 05:36 9,8 C 84 % 995,2 hPa 0,0 l/m 2,5 km/h (1 Bft) SO 135 7,2 C 9,8 C
11.04.2012 05:41 9,8 C 84 % 995,2 hPa 0,0 l/m 6,1 km/h (2 Bft) SO 135 7,2 C 9,2 C
11.04.2012 05:46 9,8 C 84 % 995,2 hPa 0,0 l/m 1,1 km/h (1 Bft) S 180 7,2 C 9,8 C
11.04.2012 05:51 9,8 C 84 % 995,2 hPa 0,0 l/m 3,6 km/h (1 Bft) S 180 7,2 C 9,8 C
11.04.2012 05:56 9,8 C 84 % 995,4 hPa 0,0 l/m 5,0 km/h (1 Bft) S 180 7,2 C 9,5 C
11.04.2012 06:01 9,8 C 84 % 995,6 hPa 0,0 l/m 6,5 km/h (2 Bft) S-SW 202 7,2 C 9,1 C
11.04.2012 06:06 9,8 C 84 % 995,6 hPa 0,0 l/m 5,0 km/h (1 Bft) S-SW 202 7,2 C 9,5 C
11.04.2012 06:11 9,8 C 84 % 995,6 hPa 0,0 l/m 5,0 km/h (1 Bft) S 180 7,2 C 9,5 C
11.04.2012 06:16 9,8 C 84 % 995,7 hPa 0,0 l/m 2,5 km/h (1 Bft) S-SO 157 7,2 C 9,8 C
11.04.2012 06:21 9,8 C 85 % 995,7 hPa 0,0 l/m 5,4 km/h (1 Bft) S-SO 157 7,4 C 9,4 C
11.04.2012 06:26 9,8 C 85 % 995,5 hPa 0,0 l/m 2,5 km/h (1 Bft) S 180 7,4 C 9,8 C
11.04.2012 06:31 9,8 C 85 % 995,5 hPa 0,0 l/m 0,0 km/h (0 Bft) S-SW 202 7,4 C 9,8 C
11.04.2012 06:36 9,7 C 85 % 995,6 hPa 0,0 l/m 4,7 km/h (1 Bft) S-SO 157 7,3 C 9,5 C
11.04.2012 06:41 9,6 C 85 % 995,6 hPa 0,0 l/m 4,0 km/h (1 Bft) S 180 7,2 C 9,6 C
11.04.2012 06:46 9,6 C 85 % 995,6 hPa 0,0 l/m 2,5 km/h (1 Bft) S 180 7,2 C 9,6 C
11.04.2012 06:51 9,6 C 85 % 995,8 hPa 0,0 l/m 3,2 km/h (1 Bft) S 180 7,2 C 9,6 C
11.04.2012 06:56 9,6 C 84 % 995,7 hPa 0,0 l/m 0,0 km/h (0 Bft) S-SO 157 7,0 C 9,6 C
11.04.2012 07:01 9,6 C 84 % 995,9 hPa 0,0 l/m 4,7 km/h (1 Bft) SO 135 7,0 C 9,4 C
11.04.2012 07:06 9,5 C 84 % 995,7 hPa 0,0 l/m 5,8 km/h (2 Bft) SO 135 6,9 C 9,0 C
11.04.2012 07:11 9,5 C 85 % 995,8 hPa 0,0 l/m 1,8 km/h (1 Bft) SW 225 7,1 C 9,5 C
11.04.2012 07:16 9,6 C 85 % 995,8 hPa 0,0 l/m 0,0 km/h (0 Bft) SW 225 7,2 C 9,6 C
11.04.2012 07:21 9,6 C 85 % 995,9 hPa 0,0 l/m 1,4 km/h (1 Bft) SW 225 7,2 C 9,6 C
11.04.2012 07:26 9,6 C 85 % 995,8 hPa 0,0 l/m 6,8 km/h (2 Bft) S 180 7,2 C 8,8 C
11.04.2012 07:31 9,6 C 85 % 995,9 hPa 0,0 l/m 3,6 km/h (1 Bft) SO 135 7,2 C 9,6 C
11.04.2012 07:36 9,6 C 85 % 996,1 hPa 0,0 l/m 4,0 km/h (1 Bft) S 180 7,2 C 9,6 C
11.04.2012 07:41 9,7 C 85 % 996,2 hPa 0,0 l/m 4,3 km/h (1 Bft) S 180 7,3 C 9,7 C
11.04.2012 07:46 9,8 C 85 % 996,0 hPa 0,0 l/m 4,3 km/h (1 Bft) SO 135 7,4 C 9,8 C
11.04.2012 07:51 9,8 C 85 % 996,3 hPa 0,0 l/m 1,8 km/h (1 Bft) SO 135 7,4 C 9,8 C
11.04.2012 07:56 9,9 C 85 % 996,2 hPa 0,0 l/m 6,1 km/h (2 Bft) S-SW 202 7,5 C 9,3 C
11.04.2012 08:01 9,9 C 85 % 996,4 hPa 0,0 l/m 4,3 km/h (1 Bft) S-SW 202 7,5 C 9,9 C
11.04.2012 08:06 9,9 C 85 % 996,3 hPa 0,0 l/m 0,0 km/h (0 Bft) S 180 7,5 C 9,9 C
11.04.2012 08:11 9,9 C 85 % 996,3 hPa 0,0 l/m 5,0 km/h (1 Bft) S 180 7,5 C 9,6 C
11.04.2012 08:16 9,9 C 85 % 996,2 hPa 0,0 l/m 6,8 km/h (2 Bft) S-SW 202 7,5 C 9,2 C
11.04.2012 08:21 10,1 C 85 % 996,3 hPa 0,0 l/m 4,3 km/h (1 Bft) SO 135 7,7 C 10,1 C
11.04.2012 08:26 10,1 C 85 % 996,4 hPa 0,0 l/m 7,9 km/h (2 Bft) S-SW 202 7,7 C 10,1 C
11.04.2012 08:31 10,2 C 85 % 996,1 hPa 0,0 l/m 0,0 km/h (0 Bft) S-SO 157 7,8 C 10,2 C
11.04.2012 08:36 10,4 C 85 % 996,3 hPa 0,0 l/m 0,0 km/h (0 Bft) S 180 8,0 C 10,4 C
11.04.2012 08:41 10,5 C 85 % 996,3 hPa 0,0 l/m 9,7 km/h (2 Bft) S 180 8,1 C 10,5 C
11.04.2012 08:46 10,6 C 85 % 996,5 hPa 0,0 l/m 6,8 km/h (2 Bft) S-SW 202 8,2 C 10,6 C
11.04.2012 08:51 10,8 C 84 % 996,5 hPa 0,0 l/m 4,0 km/h (1 Bft) S-SO 157 8,2 C 10,8 C
11.04.2012 08:56 10,9 C 84 % 996,4 hPa 0,0 l/m 3,6 km/h (1 Bft) S-SW 202 8,3 C 10,9 C
11.04.2012 09:01 11,1 C 84 % 996,3 hPa 0,0 l/m 0,0 km/h (0 Bft) O-SO 112 8,5 C 11,1 C
11.04.2012 09:06 11,2 C 84 % 996,5 hPa 0,0 l/m 3,6 km/h (1 Bft) S 180 8,6 C 11,2 C
11.04.2012 09:11 11,2 C 83 % 996,5 hPa 0,0 l/m 5,0 km/h (1 Bft) S-SW 202 8,4 C 11,2 C
11.04.2012 09:16 11,3 C 83 % 996,6 hPa 0,0 l/m 6,1 km/h (2 Bft) S-SO 157 8,5 C 11,3 C
11.04.2012 09:21 11,4 C 83 % 996,7 hPa 0,0 l/m 0,0 km/h (0 Bft) S-SW 202 8,6 C 11,4 C
11.04.2012 09:26 11,4 C 83 % 996,7 hPa 0,0 l/m 7,2 km/h (2 Bft) S 180 8,6 C 11,4 C
11.04.2012 09:31 11,4 C 83 % 996,7 hPa 0,0 l/m 6,8 km/h (2 Bft) S-SW 202 8,6 C 11,4 C
11.04.2012 09:36 11,5 C 82 % 996,8 hPa 0,0 l/m 3,6 km/h (1 Bft) W-SW 247 8,5 C 11,5 C
11.04.2012 09:41 11,4 C 82 % 996,9 hPa 0,0 l/m 5,0 km/h (1 Bft) S-SW 202 8,4 C 11,4 C
11.04.2012 09:46 11,5 C 82 % 996,9 hPa 0,0 l/m 4,3 km/h (1 Bft) S-SO 157 8,5 C 11,5 C
11.04.2012 09:51 11,6 C 82 % 996,9 hPa 0,0 l/m 3,6 km/h (1 Bft) SW 225 8,6 C 11,6 C
11.04.2012 09:56 11,6 C 82 % 997,0 hPa 0,0 l/m 5,4 km/h (1 Bft) S 180 8,6 C 11,6 C
11.04.2012 10:01 11,8 C 82 % 997,1 hPa 0,0 l/m 10,1 km/h (2 Bft) W-SW 247 8,8 C 11,8 C
11.04.2012 10:06 11,8 C 82 % 997,0 hPa 0,0 l/m 7,2 km/h (2 Bft) W 270 8,8 C 11,8 C
11.04.2012 10:11 11,9 C 82 % 997,1 hPa 0,0 l/m 10,8 km/h (2 Bft) W 270 8,9 C 11,9 C
11.04.2012 10:16 11,9 C 81 % 997,2 hPa 0,0 l/m 13,7 km/h (3 Bft) W 270 8,7 C 11,9 C
11.04.2012 10:21 11,9 C 81 % 997,2 hPa 0,0 l/m 7,2 km/h (2 Bft) S 180 8,7 C 11,9 C
11.04.2012 10:26 11,8 C 81 % 997,3 hPa 0,0 l/m 7,9 km/h (2 Bft) W 270 8,6 C 11,8 C
11.04.2012 10:31 11,6 C 82 % 997,3 hPa 0,0 l/m 6,5 km/h (2 Bft) W 270 8,6 C 11,6 C
11.04.2012 10:36 11,6 C 82 % 997,5 hPa 0,0 l/m 5,0 km/h (1 Bft) N 360 8,6 C 11,6 C
11.04.2012 10:41 10,9 C 80 % 997,7 hPa 0,0 l/m 15,5 km/h (3 Bft) W 270 7,6 C 10,9 C
11.04.2012 10:46 10,2 C 81 % 997,8 hPa 0,0 l/m 2,9 km/h (1 Bft) NW 315 7,1 C 10,2 C
11.04.2012 10:51 9,8 C 82 % 997,9 hPa 0,0 l/m 6,1 km/h (2 Bft) W 270 6,9 C 9,2 C
11.04.2012 10:56 9,6 C 83 % 998,1 hPa 0,0 l/m 6,5 km/h (2 Bft) NW 315 6,9 C 8,9 C
11.04.2012 11:01 9,5 C 83 % 998,2 hPa 0,0 l/m 6,1 km/h (2 Bft) W 270 6,8 C 8,9 C
11.04.2012 11:06 9,4 C 83 % 998,2 hPa 0,0 l/m 7,2 km/h (2 Bft) W 270 6,7 C 8,5 C
11.04.2012 11:11 9,3 C 84 % 998,2 hPa 0,0 l/m 12,2 km/h (2 Bft) NW 315 6,7 C 7,4 C
11.04.2012 11:16 9,2 C 84 % 998,3 hPa 0,0 l/m 11,9 km/h (2 Bft) W-NW 292 6,6 C 7,4 C
11.04.2012 11:21 9,2 C 84 % 998,3 hPa 0,0 l/m 13,0 km/h (3 Bft) N-NW 337 6,6 C 7,2 C
11.04.2012 11:26 9,1 C 84 % 998,3 hPa 0,0 l/m 10,8 km/h (2 Bft) W-NW 292 6,5 C 7,4 C
11.04.2012 11:31 9,1 C 84 % 998,4 hPa 0,0 l/m 3,6 km/h (1 Bft) W 270 6,5 C 9,1 C
11.04.2012 11:36 9,1 C 84 % 998,4 hPa 0,0 l/m 15,1 km/h (3 Bft) NW 315 6,5 C 6,8 C
11.04.2012 11:41 9,1 C 84 % 998,5 hPa 0,0 l/m 9,7 km/h (2 Bft) NW 315 6,5 C 7,6 C
11.04.2012 11:46 9,1 C 84 % 998,7 hPa 0,0 l/m 5,4 km/h (1 Bft) W-NW 292 6,5 C 8,6 C
11.04.2012 11:51 9,1 C 84 % 998,8 hPa 0,5 l/m 7,6 km/h (2 Bft) W 270 6,5 C 8,0 C
11.04.2012 11:56 9,0 C 84 % 998,7 hPa 0,0 l/m 7,6 km/h (2 Bft) N-NW 337 6,4 C 7,9 C
11.04.2012 12:01 8,9 C 85 % 998,7 hPa 0,0 l/m 13,0 km/h (3 Bft) NW 315 6,5 C 6,8 C
11.04.2012 12:06 8,8 C 85 % 998,8 hPa 0,0 l/m 3,2 km/h (1 Bft) W-NW 292 6,4 C 8,8 C
11.04.2012 12:11 8,8 C 86 % 998,8 hPa 0,0 l/m 2,2 km/h (1 Bft) NW 315 6,6 C 8,8 C
11.04.2012 12:16 8,8 C 86 % 998,9 hPa 0,5 l/m 4,0 km/h (1 Bft) N-NW 337 6,6 C 8,8 C
11.04.2012 12:21 8,7 C 86 % 999,0 hPa 0,0 l/m 6,5 km/h (2 Bft) W-NW 292 6,5 C 7,8 C
11.04.2012 12:26 8,6 C 86 % 999,0 hPa 0,0 l/m 3,2 km/h (1 Bft) W-NW 292 6,4 C 8,6 C
11.04.2012 12:31 8,5 C 87 % 999,2 hPa 0,5 l/m 7,2 km/h (2 Bft) O-NO 67 6,5 C 7,4 C
11.04.2012 12:36 8,5 C 87 % 999,2 hPa 0,0 l/m 4,0 km/h (1 Bft) NW 315 6,5 C 8,5 C
11.04.2012 12:41 8,6 C 87 % 999,0 hPa 0,0 l/m 2,9 km/h (1 Bft) NW 315 6,6 C 8,6 C
11.04.2012 12:46 8,6 C 87 % 999,1 hPa 0,5 l/m 5,0 km/h (1 Bft) N-NW 337 6,6 C 8,2 C
11.04.2012 12:51 8,6 C 87 % 999,4 hPa 0,0 l/m 5,4 km/h (1 Bft) N-NW 337 6,6 C 8,0 C
11.04.2012 12:56 8,7 C 87 % 999,3 hPa 0,0 l/m 12,6 km/h (3 Bft) W-NW 292 6,7 C 6,6 C
11.04.2012 13:01 8,8 C 87 % 999,3 hPa 0,0 l/m 3,6 km/h (1 Bft) W 270 6,8 C 8,8 C
11.04.2012 13:06 8,9 C 87 % 999,3 hPa 0,5 l/m 9,7 km/h (2 Bft) N-NW 337 6,9 C 7,4 C
11.04.2012 13:11 8,9 C 87 % 999,4 hPa 0,0 l/m 6,1 km/h (2 Bft) NW 315 6,9 C 8,2 C
11.04.2012 13:16 8,9 C 87 % 999,2 hPa 0,0 l/m 6,1 km/h (2 Bft) N-NO 22 6,9 C 8,2 C
11.04.2012 13:21 8,9 C 87 % 999,0 hPa 0,0 l/m 13,0 km/h (3 Bft) NW 315 6,9 C 6,8 C
11.04.2012 13:26 8,9 C 87 % 999,0 hPa 0,0 l/m 8,3 km/h (2 Bft) N-NW 337 6,9 C 7,7 C
11.04.2012 13:31 9,0 C 87 % 999,0 hPa 0,0 l/m 8,3 km/h (2 Bft) N 360 7,0 C 7,8 C
11.04.2012 13:36 9,1 C 87 % 999,1 hPa 0,0 l/m 14,8 km/h (3 Bft) N 360 7,1 C 6,8 C
11.04.2012 13:41 9,1 C 86 % 999,3 hPa 0,0 l/m 8,6 km/h (2 Bft) N-NO 22 6,9 C 7,8 C
11.04.2012 13:46 9,0 C 84 % 999,5 hPa 0,0 l/m 6,5 km/h (2 Bft) NO 45 6,4 C 8,2 C
11.04.2012 13:51 9,0 C 84 % 999,7 hPa 0,0 l/m 10,8 km/h (2 Bft) N-NO 22 6,4 C 7,3 C
11.04.2012 13:56 8,9 C 84 % 999,8 hPa 0,0 l/m 13,7 km/h (3 Bft) NW 315 6,3 C 6,7 C
11.04.2012 14:01 9,1 C 84 % 999,8 hPa 0,0 l/m 10,4 km/h (2 Bft) N 360 6,5 C 7,5 C
11.04.2012 14:06 9,2 C 84 % 999,8 hPa 0,0 l/m 3,6 km/h (1 Bft) W-NW 292 6,6 C 9,2 C
11.04.2012 14:11 9,2 C 84 % 1000,2 hPa 0,0 l/m 5,0 km/h (1 Bft) NW 315 6,6 C 8,8 C
11.04.2012 14:16 9,3 C 84 % 1000,3 hPa 0,0 l/m 7,9 km/h (2 Bft) W-NW 292 6,7 C 8,2 C
11.04.2012 14:21 9,3 C 83 % 1000,3 hPa 0,0 l/m 4,7 km/h (1 Bft) W-NW 292 6,6 C 9,1 C
11.04.2012 14:26 9,3 C 84 % 1000,3 hPa 0,0 l/m 3,2 km/h (1 Bft) NW 315 6,7 C 9,3 C
11.04.2012 14:31 9,4 C 83 % 1000,4 hPa 0,0 l/m 2,5 km/h (1 Bft) N-NW 337 6,7 C 9,4 C
11.04.2012 14:36 9,5 C 83 % 1000,4 hPa 0,0 l/m 5,0 km/h (1 Bft) O-NO 67 6,8 C 9,2 C
11.04.2012 14:41 9,6 C 83 % 1000,3 hPa 0,0 l/m 4,0 km/h (1 Bft) N 360 6,9 C 9,6 C
11.04.2012 14:46 9,6 C 82 % 1000,3 hPa 0,0 l/m 1,4 km/h (1 Bft) NO 45 6,7 C 9,6 C
11.04.2012 14:51 9,6 C 81 % 1000,4 hPa 0,0 l/m 2,5 km/h (1 Bft) NW 315 6,5 C 9,6 C
11.04.2012 14:56 9,6 C 81 % 1000,5 hPa 0,0 l/m 2,5 km/h (1 Bft) NW 315 6,5 C 9,6 C
11.04.2012 15:01 9,6 C 81 % 1000,6 hPa 0,0 l/m 6,1 km/h (2 Bft) NO 45 6,5 C 9,0 C
11.04.2012 15:06 9,6 C 81 % 1000,4 hPa 0,0 l/m 2,5 km/h (1 Bft) NO 45 6,5 C 9,6 C
11.04.2012 15:11 9,6 C 81 % 1000,4 hPa 0,0 l/m 0,0 km/h (0 Bft) N 360 6,5 C 9,6 C
11.04.2012 15:16 9,6 C 81 % 1000,5 hPa 0,0 l/m 4,3 km/h (1 Bft) NO 45 6,5 C 9,6 C
11.04.2012 15:21 9,8 C 81 % 1000,4 hPa 0,0 l/m 7,6 km/h (2 Bft) NO 45 6,7 C 8,9 C
11.04.2012 15:26 9,9 C 81 % 1000,4 hPa 0,0 l/m 2,9 km/h (1 Bft) NO 45 6,8 C 9,9 C
11.04.2012 15:31 9,9 C 80 % 1000,5 hPa 0,0 l/m 3,2 km/h (1 Bft) NO 45 6,6 C 9,9 C
11.04.2012 15:36 9,9 C 80 % 1000,3 hPa 0,0 l/m 7,2 km/h (2 Bft) NO 45 6,6 C 9,1 C
11.04.2012 15:41 10,1 C 80 % 1000,3 hPa 0,0 l/m 0,0 km/h (0 Bft) N 360 6,8 C 10,1 C
11.04.2012 15:46 10,1 C 80 % 1000,4 hPa 0,0 l/m 2,5 km/h (1 Bft) N-NO 22 6,8 C 10,1 C
11.04.2012 15:51 10,1 C 80 % 1000,4 hPa 0,0 l/m 1,4 km/h (1 Bft) NO 45 6,8 C 10,1 C
11.04.2012 15:56 10,2 C 80 % 1000,2 hPa 0,0 l/m 2,2 km/h (1 Bft) NW 315 6,9 C 10,2 C
11.04.2012 16:01 10,2 C 80 % 1000,3 hPa 0,0 l/m 1,8 km/h (1 Bft) NO 45 6,9 C 10,2 C
11.04.2012 16:06 10,2 C 79 % 1000,3 hPa 0,0 l/m 5,4 km/h (1 Bft) NO 45 6,7 C 10,2 C
11.04.2012 16:11 10,3 C 78 % 1000,3 hPa 0,0 l/m 1,8 km/h (1 Bft) O-NO 67 6,6 C 10,3 C
11.04.2012 16:16 10,4 C 79 % 1000,4 hPa 0,0 l/m 1,1 km/h (1 Bft) O 90 6,9 C 10,4 C
11.04.2012 16:21 10,5 C 79 % 1000,4 hPa 0,0 l/m 0,0 km/h (0 Bft) O 90 7,0 C 10,5 C
11.04.2012 16:26 10,6 C 77 % 1000,5 hPa 0,0 l/m 5,4 km/h (1 Bft) N-NO 22 6,7 C 10,6 C
11.04.2012 16:31 10,4 C 77 % 1000,5 hPa 0,0 l/m 1,4 km/h (1 Bft) NO 45 6,5 C 10,4 C
11.04.2012 16:36 10,4 C 77 % 1000,5 hPa 0,0 l/m 1,8 km/h (1 Bft) NO 45 6,5 C 10,4 C
11.04.2012 16:41 10,4 C 77 % 1000,5 hPa 0,0 l/m 2,9 km/h (1 Bft) N-NO 22 6,5 C 10,4 C
11.04.2012 16:46 10,3 C 77 % 1000,5 hPa 0,0 l/m 3,6 km/h (1 Bft) N-NO 22 6,4 C 10,3 C
11.04.2012 16:51 10,4 C 76 % 1000,6 hPa 0,0 l/m 2,5 km/h (1 Bft) NO 45 6,4 C 10,4 C
11.04.2012 16:56 10,3 C 76 % 1000,6 hPa 0,0 l/m 4,0 km/h (1 Bft) N-NO 22 6,3 C 10,3 C
11.04.2012 17:01 10,3 C 75 % 1000,6 hPa 0,0 l/m 2,9 km/h (1 Bft) N-NO 22 6,1 C 10,3 C
11.04.2012 17:06 10,3 C 75 % 1000,7 hPa 0,0 l/m 2,2 km/h (1 Bft) NO 45 6,1 C 10,3 C
11.04.2012 17:11 10,5 C 76 % 1000,8 hPa 0,0 l/m 1,8 km/h (1 Bft) O-NO 67 6,5 C 10,5 C
11.04.2012 17:16 10,8 C 76 % 1000,8 hPa 0,0 l/m 0,0 km/h (0 Bft) W 270 6,7 C 10,8 C
11.04.2012 17:21 10,9 C 75 % 1000,9 hPa 0,0 l/m 0,0 km/h (0 Bft) N-NW 337 6,6 C 10,9 C
11.04.2012 17:26 10,9 C 74 % 1000,8 hPa 0,0 l/m 0,0 km/h (0 Bft) NO 45 6,5 C 10,9 C
11.04.2012 17:31 10,8 C 74 % 1000,8 hPa 0,0 l/m 2,5 km/h (1 Bft) N-NW 337 6,4 C 10,8 C
11.04.2012 17:36 10,9 C 75 % 1000,9 hPa 0,0 l/m 0,0 km/h (0 Bft) W-SW 247 6,6 C 10,9 C
11.04.2012 17:41 10,9 C 75 % 1000,8 hPa 0,0 l/m 0,0 km/h (0 Bft) S-SW 202 6,6 C 10,9 C
11.04.2012 17:46 10,9 C 74 % 1000,9 hPa 0,0 l/m 0,0 km/h (0 Bft) O 90 6,5 C 10,9 C
11.04.2012 17:51 10,8 C 74 % 1000,8 hPa 0,0 l/m 0,0 km/h (0 Bft) O-NO 67 6,4 C 10,8 C
11.04.2012 17:56 10,8 C 74 % 1000,9 hPa 0,0 l/m 0,0 km/h (0 Bft) O 90 6,4 C 10,8 C
11.04.2012 18:01 10,8 C 73 % 1001,0 hPa 0,0 l/m 0,0 km/h (0 Bft) O-SO 112 6,2 C 10,8 C
11.04.2012 18:06 10,8 C 74 % 1001,0 hPa 0,0 l/m 2,2 km/h (1 Bft) N-NO 22 6,4 C 10,8 C
11.04.2012 18:11 10,8 C 73 % 1001,1 hPa 0,0 l/m 0,0 km/h (0 Bft) N 360 6,2 C 10,8 C
11.04.2012 18:16 10,8 C 73 % 1001,0 hPa 0,0 l/m 0,0 km/h (0 Bft) O-NO 67 6,2 C 10,8 C
11.04.2012 18:21 10,9 C 73 % 1001,1 hPa 0,0 l/m 0,0 km/h (0 Bft) O-NO 67 6,3 C 10,9 C
11.04.2012 18:26 10,9 C 72 % 1001,1 hPa 0,0 l/m 0,0 km/h (0 Bft) O-NO 67 6,1 C 10,9 C
11.04.2012 18:31 10,9 C 72 % 1001,1 hPa 0,0 l/m 1,8 km/h (1 Bft) O 90 6,1 C 10,9 C
11.04.2012 18:36 10,9 C 72 % 1001,0 hPa 0,0 l/m 0,0 km/h (0 Bft) O 90 6,1 C 10,9 C
11.04.2012 18:41 10,8 C 72 % 1001,0 hPa 0,0 l/m 0,0 km/h (0 Bft) O-SO 112 6,0 C 10,8 C
11.04.2012 18:46 10,8 C 73 % 1001,1 hPa 0,0 l/m 1,8 km/h (1 Bft) O-SO 112 6,2 C 10,8 C
11.04.2012 18:51 10,8 C 73 % 1001,1 hPa 0,0 l/m 1,4 km/h (1 Bft) O-SO 112 6,2 C 10,8 C
11.04.2012 18:56 10,7 C 73 % 1001,1 hPa 0,0 l/m 0,0 km/h (0 Bft) O-SO 112 6,1 C 10,7 C
11.04.2012 19:01 10,6 C 73 % 1001,0 hPa 0,0 l/m 0,0 km/h (0 Bft) O-SO 112 6,0 C 10,6 C
11.04.2012 19:06 10,6 C 73 % 1001,1 hPa 0,0 l/m 0,0 km/h (0 Bft) O-SO 112 6,0 C 10,6 C
11.04.2012 19:11 10,6 C 73 % 1001,1 hPa 0,0 l/m 0,0 km/h (0 Bft) O-SO 112 6,0 C 10,6 C
11.04.2012 19:16 10,5 C 74 % 1001,1 hPa 0,0 l/m 1,1 km/h (1 Bft) O-SO 112 6,1 C 10,5 C
11.04.2012 19:21 10,4 C 74 % 1001,1 hPa 0,0 l/m 0,0 km/h (0 Bft) O-SO 112 6,0 C 10,4 C
11.04.2012 19:26 10,4 C 74 % 1001,2 hPa 0,0 l/m 1,8 km/h (1 Bft) SO 135 6,0 C 10,4 C
11.04.2012 19:31 10,4 C 74 % 1001,1 hPa 0,0 l/m 0,0 km/h (0 Bft) SO 135 6,0 C 10,4 C
11.04.2012 19:36 10,4 C 75 % 1001,3 hPa 0,0 l/m 0,0 km/h (0 Bft) SO 135 6,2 C 10,4 C
11.04.2012 19:41 10,3 C 75 % 1001,3 hPa 0,0 l/m 1,8 km/h (1 Bft) SO 135 6,1 C 10,3 C
11.04.2012 19:46 10,2 C 75 % 1001,3 hPa 0,0 l/m 1,8 km/h (1 Bft) SO 135 6,0 C 10,2 C
11.04.2012 19:51 10,1 C 76 % 1001,6 hPa 0,0 l/m 2,9 km/h (1 Bft) SO 135 6,1 C 10,1 C
11.04.2012 19:56 10,1 C 76 % 1001,6 hPa 0,0 l/m 2,2 km/h (1 Bft) SO 135 6,1 C 10,1 C
11.04.2012 20:01 10,1 C 76 % 1001,6 hPa 0,0 l/m 0,0 km/h (0 Bft) SO 135 6,1 C 10,1 C
11.04.2012 20:06 9,9 C 76 % 1001,8 hPa 0,0 l/m 2,2 km/h (1 Bft) SO 135 5,9 C 9,9 C
11.04.2012 20:11 9,9 C 76 % 1001,8 hPa 0,0 l/m 2,2 km/h (1 Bft) SO 135 5,9 C 9,9 C
11.04.2012 20:16 9,8 C 77 % 1001,7 hPa 0,0 l/m 0,0 km/h (0 Bft) SO 135 6,0 C 9,8 C
11.04.2012 20:21 9,8 C 77 % 1001,9 hPa 0,0 l/m 0,0 km/h (0 Bft) SO 135 6,0 C 9,8 C
11.04.2012 20:26 9,8 C 77 % 1001,9 hPa 0,0 l/m 0,0 km/h (0 Bft) SO 135 6,0 C 9,8 C
11.04.2012 20:31 9,6 C 77 % 1001,9 hPa 0,0 l/m 0,0 km/h (0 Bft) SO 135 5,8 C 9,6 C
11.04.2012 20:36 9,6 C 77 % 1002,0 hPa 0,0 l/m 0,0 km/h (0 Bft) S-SO 157 5,8 C 9,6 C
11.04.2012 20:41 9,6 C 78 % 1002,3 hPa 0,0 l/m 0,0 km/h (0 Bft) S-SO 157 6,0 C 9,6 C
11.04.2012 20:46 9,5 C 78 % 1002,2 hPa 0,0 l/m 0,0 km/h (0 Bft) S-SO 157 5,9 C 9,5 C
11.04.2012 20:51 9,4 C 78 % 1002,2 hPa 0,0 l/m 0,0 km/h (0 Bft) S-SO 157 5,8 C 9,4 C
11.04.2012 20:56 9,3 C 78 % 1002,1 hPa 0,0 l/m 0,0 km/h (0 Bft) S-SO 157 5,7 C 9,3 C
11.04.2012 21:01 9,2 C 79 % 1002,2 hPa 0,0 l/m 0,0 km/h (0 Bft) S-SO 157 5,8 C 9,2 C
11.04.2012 21:06 9,1 C 79 % 1002,2 hPa 0,0 l/m 0,0 km/h (0 Bft) SO 135 5,7 C 9,1 C
11.04.2012 21:11 8,9 C 79 % 1002,2 hPa 0,0 l/m 0,0 km/h (0 Bft) N-NW 337 5,5 C 8,9 C
11.04.2012 21:16 8,8 C 80 % 1002,3 hPa 0,0 l/m 0,0 km/h (0 Bft) N-NO 22 5,5 C 8,8 C
11.04.2012 21:21 8,7 C 80 % 1002,3 hPa 0,0 l/m 0,0 km/h (0 Bft) N-NO 22 5,4 C 8,7 C
11.04.2012 21:26 8,6 C 80 % 1002,3 hPa 0,0 l/m 0,0 km/h (0 Bft) O-NO 67 5,3 C 8,6 C
11.04.2012 21:31 8,7 C 81 % 1002,3 hPa 0,0 l/m 2,5 km/h (1 Bft) O-SO 112 5,6 C 8,7 C
11.04.2012 21:36 8,8 C 81 % 1002,2 hPa 0,0 l/m 1,8 km/h (1 Bft) SO 135 5,7 C 8,8 C
11.04.2012 21:41 8,8 C 81 % 1002,3 hPa 0,0 l/m 2,2 km/h (1 Bft) SO 135 5,7 C 8,8 C
11.04.2012 21:46 8,8 C 81 % 1002,1 hPa 0,0 l/m 2,2 km/h (1 Bft) O-SO 112 5,7 C 8,8 C
11.04.2012 21:51 8,8 C 81 % 1002,2 hPa 0,0 l/m 0,0 km/h (0 Bft) SO 135 5,7 C 8,8 C
11.04.2012 21:56 8,8 C 81 % 1002,4 hPa 0,0 l/m 0,0 km/h (0 Bft) SO 135 5,7 C 8,8 C
11.04.2012 22:01 8,7 C 82 % 1002,3 hPa 0,0 l/m 2,2 km/h (1 Bft) SO 135 5,8 C 8,7 C
11.04.2012 22:06 8,7 C 82 % 1002,3 hPa 0,0 l/m 2,9 km/h (1 Bft) O-SO 112 5,8 C 8,7 C
11.04.2012 22:11 8,6 C 82 % 1002,2 hPa 0,0 l/m 0,0 km/h (0 Bft) SO 135 5,7 C 8,6 C
11.04.2012 22:16 8,5 C 82 % 1002,3 hPa 0,0 l/m 0,0 km/h (0 Bft) SO 135 5,6 C 8,5 C
11.04.2012 22:21 8,5 C 82 % 1002,4 hPa 0,0 l/m 0,0 km/h (0 Bft) SO 135 5,6 C 8,5 C
11.04.2012 22:26 8,5 C 82 % 1002,3 hPa 0,0 l/m 1,4 km/h (1 Bft) SO 135 5,6 C 8,5 C
11.04.2012 22:31 8,4 C 82 % 1002,3 hPa 0,0 l/m 2,5 km/h (1 Bft) SO 135 5,5 C 8,4 C
11.04.2012 22:36 8,4 C 82 % 1002,3 hPa 0,0 l/m 0,0 km/h (0 Bft) SO 135 5,5 C 8,4 C
11.04.2012 22:41 8,4 C 82 % 1002,3 hPa 0,0 l/m 1,8 km/h (1 Bft) SO 135 5,5 C 8,4 C
11.04.2012 22:46 8,4 C 82 % 1002,3 hPa 0,0 l/m 1,4 km/h (1 Bft) S-SO 157 5,5 C 8,4 C
11.04.2012 22:51 8,4 C 82 % 1002,3 hPa 0,0 l/m 1,8 km/h (1 Bft) SO 135 5,5 C 8,4 C
11.04.2012 22:56 8,4 C 82 % 1002,4 hPa 0,0 l/m 0,0 km/h (0 Bft) SO 135 5,5 C 8,4 C
11.04.2012 23:01 8,2 C 82 % 1002,5 hPa 0,0 l/m 0,0 km/h (0 Bft) SO 135 5,3 C 8,2 C
11.04.2012 23:06 8,1 C 82 % 1002,4 hPa 0,0 l/m 2,2 km/h (1 Bft) SO 135 5,2 C 8,1 C
11.04.2012 23:11 8,1 C 82 % 1002,5 hPa 0,0 l/m 0,0 km/h (0 Bft) O-SO 112 5,2 C 8,1 C
11.04.2012 23:16 8,1 C 82 % 1002,4 hPa 0,0 l/m 0,0 km/h (0 Bft) SO 135 5,2 C 8,1 C
11.04.2012 23:21 8,0 C 83 % 1002,5 hPa 0,0 l/m 1,8 km/h (1 Bft) SO 135 5,3 C 8,0 C
11.04.2012 23:26 7,9 C 82 % 1002,5 hPa 0,0 l/m 0,0 km/h (0 Bft) SO 135 5,0 C 7,9 C
11.04.2012 23:31 7,8 C 83 % 1002,4 hPa 0,0 l/m 0,0 km/h (0 Bft) SO 135 5,1 C 7,8 C
11.04.2012 23:36 7,7 C 83 % 1002,6 hPa 0,0 l/m 2,2 km/h (1 Bft) SO 135 5,0 C 7,7 C
11.04.2012 23:41 7,6 C 83 % 1002,6 hPa 0,0 l/m 0,0 km/h (0 Bft) SO 135 4,9 C 7,6 C
11.04.2012 23:46 7,6 C 83 % 1002,7 hPa 0,0 l/m 0,0 km/h (0 Bft) SO 135 4,9 C 7,6 C
11.04.2012 23:51 7,5 C 83 % 1002,7 hPa 0,0 l/m 0,0 km/h (0 Bft) SO 135 4,8 C 7,5 C
11.04.2012 23:56 7,5 C 83 % 1002,7 hPa 0,0 l/m 0,0 km/h (0 Bft) SO 135 4,8 C 7,5 C
_ Min-Zeit 23:51 18:26 05:11 - 00:31 - - 23:51 12:56
Minimum _ 7,5 C 72 % 994,8 hPa - 0,0 km/h (0 Bft) - - 4,8 C 6,6 C
_ Max-Zeit 10:11 12:31 23:46 02:46 10:41 - - 10:11 10:11
Maximum _ 11,9 C 87 % 1002,7 hPa 0,5 l/m 15,5 km/h
W (3 Bft)
- - 8,9 C 11,9 C
Durchschnitt _ 9,9 C 81 % 998,7 hPa #3,1 l/m 3,4 km/h (1 Bft) SO - 6,8 C 9,7 C
(c) by David Heller